SV2BBO-2 Thessaloniki GR current weather conditions

sailwx.info

Wind from 021 at 2 knots gusting 2

Air temperature 23.3° C
Dewpoint 4.3° C

Last reported at 2015-Jul-01 20:48 UTC.
Time now 2015-Jul-01 21:12 UTC

Location: N 40°38' E 022°57'.
View on Google Maps.

See reports from other nearby stations

  
Tides and Currents Weather Stations Pressure Air Temp Water Temp Dewpoint Dewpoint Depression Visibility Wind Speed Wind Dir Waves Ship Positions
date/time (UTC)wind fromknots sea level pressurealtimeterstation pressurevisibilityair tempwater tempwave heightnotes
2015-Jul-01 20:48 021 2 gusting 2 23.3
2015-Jul-01 20:38 329 23.3
2015-Jul-01 20:28 349 3 gusting 3 23.3
2015-Jul-01 20:18 282 3 gusting 3 23.3
2015-Jul-01 20:07 287 2 gusting 3 23.9
2015-Jul-01 19:57 007 23.3
2015-Jul-01 19:47 049 3 gusting 4 23.3
2015-Jul-01 19:37 23.3
2015-Jul-01 19:27 357 3 gusting 3 23.9
2015-Jul-01 19:17 021 3 gusting 4 23.9
2015-Jul-01 19:07 352 2 gusting 2 23.9
2015-Jul-01 18:57 354 1 gusting 3 23.9
2015-Jul-01 18:47 331 23.9
2015-Jul-01 18:37 324 4 gusting 4 23.9
2015-Jul-01 18:27 312 2 gusting 4 23.9
2015-Jul-01 18:17 302 3 gusting 3 24.4
2015-Jul-01 18:07 303 3 gusting 2 24.4
2015-Jul-01 17:57 320 1 gusting 3 24.4
2015-Jul-01 17:47 312 0 24.4
2015-Jul-01 17:37 035 2 gusting 5 24.4
2015-Jul-01 17:27 340 2 gusting 3 24.4
2015-Jul-01 17:17 356 2 gusting 3 24.4
2015-Jul-01 17:07 010 3 gusting 4 24.4
2015-Jul-01 16:57 348 2 gusting 4 25.0
2015-Jul-01 16:47 030 3 gusting 5 25.0
2015-Jul-01 16:37 339 5 gusting 6 25.0
2015-Jul-01 16:27 329 2 gusting 3 25.0
2015-Jul-01 16:17 316 3 gusting 4 25.0
2015-Jul-01 16:07 321 3 gusting 4 25.0
2015-Jul-01 15:57 019 4 gusting 6 25.0
2015-Jul-01 15:47 014 3 gusting 4 25.0
2015-Jul-01 15:37 359 3 gusting 4 25.0
2015-Jul-01 15:27 350 3 gusting 4 25.0
2015-Jul-01 15:17 049 5 gusting 6 25.0
2015-Jul-01 15:07 029 3 gusting 6 24.4
2015-Jul-01 14:57 005 5 gusting 6 24.4
2015-Jul-01 14:47 033 5 gusting 6 24.4
2015-Jul-01 14:37 017 4 gusting 6 25.0
2015-Jul-01 14:27 025 4 gusting 7 24.4
2015-Jul-01 14:17 038 6 gusting 6 25.0
2015-Jul-01 14:07 353 5 gusting 4 25.0
2015-Jul-01 13:57 056 3 gusting 6 25.0
2015-Jul-01 13:47 063 5 gusting 6 24.4
2015-Jul-01 13:37 044 4 gusting 5 25.0
2015-Jul-01 13:27 037 2 gusting 6 25.0
2015-Jul-01 13:17 24.4
2015-Jul-01 13:07 339 4 gusting 5 23.9
2015-Jul-01 12:57 054 6 gusting 6 23.9
2015-Jul-01 12:47 033 3 gusting 5 23.9
2015-Jul-01 12:37 003 4 gusting 4 24.4
2015-Jul-01 12:27 048 4 gusting 6 24.4
2015-Jul-01 12:17 054 3 gusting 4 24.4
2015-Jul-01 12:07 021 4 gusting 6 24.4
2015-Jul-01 11:57 281 2 gusting 3 24.4
2015-Jul-01 11:47 268 24.4
2015-Jul-01 11:37 297 24.4
2015-Jul-01 11:27 298 2 gusting 3 23.9
2015-Jul-01 11:17 219 1 gusting 3 23.9
2015-Jul-01 11:07 218 23.9
2015-Jul-01 10:57 219 2 gusting 2 23.3
2015-Jul-01 10:47 237 0 gusting 3 23.3
2015-Jul-01 10:37 239 22.8
2015-Jul-01 10:27 219 0 gusting 3 22.8
2015-Jul-01 10:17 217 0 23.3
2015-Jul-01 10:07 057 22.8
2015-Jul-01 09:57 057 0 gusting 2 22.8
2015-Jul-01 09:47 108 0 22.8
2015-Jul-01 09:37 252 1 gusting 3 22.8
2015-Jul-01 09:27 357 2 gusting 3 23.3
2015-Jul-01 09:17 050 0 gusting 2 22.8
2015-Jul-01 09:07 127 22.8
2015-Jul-01 08:57 064 2 gusting 3 22.8
2015-Jul-01 08:47 038 1 gusting 3 23.3
2015-Jul-01 08:37 325 23.3
2015-Jul-01 08:27 326 23.3
2015-Jul-01 08:17 325 22.8
2015-Jul-01 08:07 325 22.8
2015-Jul-01 07:57 325 22.8
2015-Jul-01 07:47 325 22.8
2015-Jul-01 07:37 311 22.2
2015-Jul-01 07:27 122 22.8
2015-Jul-01 07:17 122 22.8
2015-Jul-01 07:07 122 22.8
2015-Jul-01 06:57 148 2 gusting 5 22.2
2015-Jul-01 06:47 056 2 gusting 2 22.2
2015-Jul-01 06:37 096 22.8
2015-Jul-01 06:27 096 22.2
2015-Jul-01 06:17 157 22.2
2015-Jul-01 06:07 197 22.2
2015-Jul-01 05:57 081 22.2
2015-Jul-01 05:47 082 1 gusting 2 21.7
2015-Jul-01 05:37 024 21.1
2015-Jul-01 05:27 046 21.1
2015-Jul-01 05:17 027 21.1
2015-Jul-01 05:07 028 0 gusting 2 21.1
2015-Jul-01 04:57 082 21.7
2015-Jul-01 04:47 083 21.7
2015-Jul-01 04:37 084 21.7
2015-Jul-01 04:27 083 21.7
2015-Jul-01 04:17 074 21.7
2015-Jul-01 04:07 133 1 gusting 3 21.7
2015-Jul-01 03:57 137 21.7
2015-Jul-01 03:47 143 21.7
2015-Jul-01 03:37 075 21.7
2015-Jul-01 03:27 075 21.7
2015-Jul-01 03:17 076 21.1
2015-Jul-01 03:07 072 0 gusting 2 21.1
2015-Jul-01 02:57 064 21.1
2015-Jul-01 02:47 305 21.1
2015-Jul-01 02:37 007 21.1
2015-Jul-01 02:27 012 1 gusting 3 21.1
2015-Jul-01 02:17 014 21.1
2015-Jul-01 02:07 357 21.1
2015-Jul-01 01:57 024 21.1
2015-Jul-01 01:47 048 21.1
2015-Jul-01 01:39 048 2 gusting 3 21.1
2015-Jul-01 01:29 044 2 gusting 2 21.1
2015-Jul-01 01:19 092 21.1
2015-Jul-01 01:09 091 2 gusting 3 21.1
2015-Jul-01 00:59 150 21.1
2015-Jul-01 00:49 132 2 gusting 2 21.1
2015-Jul-01 00:39 207 21.7
2015-Jul-01 00:29 125 1 gusting 2 21.1
2015-Jul-01 00:19 125 21.1
2015-Jul-01 00:09 126 21.1
2015-Jun-30 23:59 121 21.1
2015-Jun-30 23:49 122 21.1
2015-Jun-30 23:39 108 21.1
2015-Jun-30 23:29 073 21.1
2015-Jun-30 23:19 072 21.1
2015-Jun-30 23:09 073 21.1
2015-Jun-30 22:59 182 21.1
2015-Jun-30 22:49 206 2 gusting 3 21.1
2015-Jun-30 22:39 053 0 21.7
2015-Jun-30 22:29 053 3 gusting 3 21.7
2015-Jun-30 22:19 023 21.7
2015-Jun-30 22:09 357 21.7
2015-Jun-30 21:59 357 21.1
2015-Jun-30 21:49 357 21.1
2015-Jun-30 21:39 357 21.1
2015-Jun-30 21:29 337 21.1
2015-Jun-30 21:19 337 21.1
2015-Jun-30 21:09 336 2 gusting 2 21.1
2015-Jun-30 20:59 284 21.1
2015-Jun-30 20:49 268 2 gusting 3 21.1
2015-Jun-30 20:39 318 0 gusting 2 21.1
2015-Jun-30 20:29 311 0 gusting 3 21.1
2015-Jun-30 20:19 288 1 gusting 4 21.1
2015-Jun-30 20:09 312 0 21.1
2015-Jun-30 19:59 312 0 gusting 4 21.1
2015-Jun-30 19:49 301 1 21.7
2015-Jun-30 19:39 320 21.7
2015-Jun-30 19:29 307 0 gusting 2 21.1
2015-Jun-30 19:19 333 1 gusting 3 21.1
2015-Jun-30 19:09 287 2 gusting 4 21.1
2015-Jun-30 18:59 326 0 gusting 2 21.7
2015-Jun-30 18:49 336 3 gusting 5 21.7
2015-Jun-30 18:39 319 2 gusting 4 21.7
2015-Jun-30 18:29 293 3 gusting 4 21.7
2015-Jun-30 18:19 312 2 gusting 2 21.7
2015-Jun-30 18:09 292 4 gusting 5 21.7
2015-Jun-30 17:59 324 3 gusting 5 21.7
2015-Jun-30 17:49 321 2 gusting 5 22.2
2015-Jun-30 17:39 324 2 gusting 3 22.2
2015-Jun-30 17:29 316 3 gusting 3 22.8
2015-Jun-30 17:19 343 22.8
2015-Jun-30 17:09 342 22.2
2015-Jun-30 16:59 003 0 22.2
2015-Jun-30 16:49 044 2 gusting 3 22.2
2015-Jun-30 16:39 061 1 gusting 3 22.2
2015-Jun-30 16:29 066 22.8
2015-Jun-30 16:19 187 2 gusting 3 22.8
2015-Jun-30 16:09 187 2 gusting 3 23.3
2015-Jun-30 15:59 229 3 gusting 3 22.8
2015-Jun-30 15:49 292 1 gusting 2 22.8
2015-Jun-30 15:39 307 3 gusting 5 22.8
2015-Jun-30 15:29 210 4 gusting 6 23.3
2015-Jun-30 15:19 226 0 gusting 3 23.3
2015-Jun-30 15:09 156 4 gusting 5 23.9
2015-Jun-30 14:59 181 7 gusting 9 23.9
2015-Jun-30 14:49 218 4 gusting 6 26.1
2015-Jun-30 14:39 278 5 gusting 5 26.7
2015-Jun-30 14:29 266 4 gusting 13 27.2
2015-Jun-30 14:19 295 3 gusting 5 27.2
2015-Jun-30 14:09 303 4 gusting 6 27.2
2015-Jun-30 13:59 288 5 gusting 6 27.2
2015-Jun-30 13:49 211 3 gusting 5 26.7
2015-Jun-30 13:39 260 4 gusting 5 26.7
2015-Jun-30 13:29 209 3 gusting 5 27.2
2015-Jun-30 13:19 233 3 gusting 5 27.2
2015-Jun-30 13:07 283 3 gusting 5 27.2
2015-Jun-30 12:57 214 3 gusting 3 27.2
2015-Jun-30 12:47 263 3 gusting 6 27.2
2015-Jun-30 12:37 292 5 gusting 6 27.2
2015-Jun-30 12:27 303 3 gusting 6 27.2
2015-Jun-30 12:17 283 4 gusting 6 27.2
2015-Jun-30 12:07 219 3 gusting 3 27.2
2015-Jun-30 11:57 110 2 gusting 3 26.7
2015-Jun-30 11:47 160 3 gusting 3 27.8
2015-Jun-30 11:37 186 3 gusting 6 27.8
2015-Jun-30 11:27 172 6 gusting 6 27.8
2015-Jun-30 11:17 195 3 gusting 5 27.2
2015-Jun-30 11:07 129 3 gusting 3 27.2
2015-Jun-30 10:57 125 3 gusting 3 26.7
2015-Jun-30 10:47 144 3 gusting 4 27.2
2015-Jun-30 10:37 140 3 gusting 5 27.2
2015-Jun-30 10:27 133 4 gusting 5 26.7
2015-Jun-30 10:17 084 4 gusting 5 26.7
2015-Jun-30 10:07 111 3 gusting 6 26.7
2015-Jun-30 09:57 103 3 gusting 5 27.8
2015-Jun-30 09:47 178 3 gusting 3 27.8
2015-Jun-30 09:37 138 1 gusting 2 27.2
2015-Jun-30 09:27 108 2 gusting 3 26.7
2015-Jun-30 09:17 028 25.6
2015-Jun-30 09:07 047 3 gusting 5 24.4
2015-Jun-30 08:57 055 4 gusting 5 24.4
2015-Jun-30 08:47 064 4 gusting 4 24.4
2015-Jun-30 08:37 050 2 gusting 5 25.0
2015-Jun-30 08:27 144 2 gusting 3 26.1
2015-Jun-30 08:17 128 3 gusting 4 26.7
2015-Jun-30 08:07 266 3 gusting 4 26.1
2015-Jun-30 07:57 203 3 gusting 3 26.1
2015-Jun-30 07:47 278 3 gusting 4 26.1
2015-Jun-30 07:37 274 3 gusting 4 26.7
2015-Jun-30 07:27 235 2 gusting 5 26.7
2015-Jun-30 07:17 235 4 gusting 4 27.2
2015-Jun-30 07:07 225 5 gusting 6 28.3
2015-Jun-30 06:57 232 3 gusting 5 28.3
2015-Jun-30 06:47 239 4 gusting 4 28.3
2015-Jun-30 06:37 196 3 gusting 4 28.3
2015-Jun-30 06:27 198 3 gusting 3 28.3
2015-Jun-30 06:17 161 0 gusting 2 27.8
2015-Jun-30 06:07 212 0 27.8
2015-Jun-30 05:57 172 2 gusting 3 27.2
2015-Jun-30 05:47 122 2 gusting 3 26.1
2015-Jun-30 05:37 088 1 gusting 3 25.6
2015-Jun-30 05:27 045 24.4
2015-Jun-30 05:17 045 1 gusting 2 24.4
2015-Jun-30 05:07 014 4 gusting 5 23.9
2015-Jun-30 04:57 008 0 gusting 2 23.9
2015-Jun-30 04:47 030 3 gusting 5 24.4
2015-Jun-30 04:37 117 1 gusting 3 23.9
2015-Jun-30 04:27 117 2 gusting 3 23.3
2015-Jun-30 04:17 117 1 gusting 3 23.3
2015-Jun-30 04:07 095 2 23.3
2015-Jun-30 03:57 032 0 gusting 3 23.3
2015-Jun-30 03:47 338 2 gusting 4 23.3
2015-Jun-30 03:37 356 2 gusting 4 23.3
2015-Jun-30 03:27 099 0 gusting 2 22.8
2015-Jun-30 03:17 099 22.8
2015-Jun-30 03:07 099 22.8
2015-Jun-30 02:57 099 22.8
2015-Jun-30 02:47 099 2 gusting 2 22.8
2015-Jun-30 02:37 099 22.8
2015-Jun-30 02:27 099 2 gusting 3 22.8
2015-Jun-30 02:17 099 23.3
2015-Jun-30 02:07 099 2 gusting 2 23.3
2015-Jun-30 01:57 099 23.3
2015-Jun-30 01:47 099 23.3
2015-Jun-30 01:44 099 23.3
2015-Jun-30 01:34 099 23.3
2015-Jun-30 01:24 099 23.3
2015-Jun-30 01:14 099 2 gusting 3 22.8
2015-Jun-30 01:04 206 23.3
2015-Jun-30 00:54 206 23.3
2015-Jun-30 00:44 206 23.3
2015-Jun-30 00:34 206 23.3
2015-Jun-30 00:24 200 0 gusting 4 23.9
2015-Jun-30 00:14 215 23.9
2015-Jun-30 00:04 220 23.9
2015-Jun-29 23:54 220 23.9
2015-Jun-29 23:44 219 2 gusting 3 23.9
2015-Jun-29 23:34 223 2 gusting 3 23.9
2015-Jun-29 23:24 267 3 gusting 3 24.4
2015-Jun-29 23:14 243 2 gusting 3 24.4
2015-Jun-29 23:04 230 0 24.4
2015-Jun-29 22:54 209 2 gusting 3 24.4
2015-Jun-29 22:44 162 0 gusting 2 25.0
2015-Jun-29 22:34 223 3 gusting 4 25.0
2015-Jun-29 22:24 062 25.0
2015-Jun-29 22:14 062 25.0
2015-Jun-29 22:04 062 0 gusting 2 25.0
2015-Jun-29 21:54 062 25.0
2015-Jun-29 21:44 062 25.0
2015-Jun-29 21:34 056 2 gusting 3 25.0
2015-Jun-29 21:24 078 25.0
2015-Jun-29 21:14 058 25.0
2015-Jun-29 21:04 057 2 gusting 3 25.6